Location: La Trinit�
(48.1620°N, 3.4512°W)
Time: 04:04:47
(UTC+00:00)

Cosmos 2074 Rocket - Pass Details

Date: 08 May 2021
Orbit: 968 x 985 km, 82.9° (Epoch: 13 June)

Event Time Altitude Azimuth Distance (km) Brightness Sun altitude
Rises 21:37:07 0° 353° (N) 3,704 8.1 -16.1°
Reaches altitude 10° 21:39:41 10° 357° (N) 2,753 7.2 -16.4°
Maximum altitude 21:45:57 61° 77° (ENE) 1,116 4.2 -17.0°
Enters shadow 21:49:24 27° 148° (SSE) 1,789 4.8 -17.3°
